Location: Beuerbach
(48.1459°N, 10.9174°E)
Time: 19:54:03
(UTC+00:00)

SL-16 R/B - Pass Details

Date: 10 August 2024
Orbit: 842 x 845 km, 71.0° (Epoch: 07 September)

Event Time Altitude Azimuth Distance (km) Brightness Sun altitude
Exits shadow 00:56:59 23° 270° (W) 1,717 3.6 -22.9°
Maximum altitude 00:59:22 32° 311° (NW) 1,425 3.5 -22.8°
Drops below altitude 10° 01:04:25 10° 14° (NNE) 2,476 5.7 -22.4°
Sets 01:07:09 0° 24° (NNE) 3,415 6.9 -22.2°
